Location: Poughquag
(41.6090°N, 73.6820°W)
Time: 16:13:12
(UTC-05:00)

N. Korean satellite - Pass Details

Date: 17 January 2020
Orbit: 456 x 505 km, 97.2° (Epoch: 24 February)

Event Time Altitude Azimuth Distance (km) Brightness Sun altitude
Rises 05:43:50 0° 12° (NNE) 2,508 10.2 -17.4°
Reaches altitude 10° 05:45:53 10° 12° (NNE) 1,634 9.2 -17.0°
Maximum altitude 05:49:23 87° 102° (ESE) 480 6.5 -16.4°
Drops below altitude 10° 05:52:56 10° 192° (SSW) 1,647 9.3 -15.8°
Sets 05:55:00 0° 193° (SSW) 2,530 10.2 -15.4°
